Volver al catálogo

STARLINK-37688

ActivoComunicacionesVLEO
NORAD 69372·PAYLOAD·🇺🇸 United States

Lanzado Jun 4, 2026 desde Cape Canaveral Space Force Station

Loading…

Próximos Pases (próximas 24 horas)

TLE

ActualizadoSource: CelesTrak SupGP

Época: Sep 15, 2026, 03:46 UTC

1 69372C 26123V   26258.15743056 -.00000123  00000+0 -36407-5 0  2585
2 69372  53.1577 166.5563 0001382  81.9649 204.5363 15.34384742    15

Sigue STARLINK-37688 en tiempo real con AllMySat

Download on the App Store